This demonstration page uses our WeatherBlox Daily Observations layout. Learn more.

Left ArrowRight Arrow

41.86663, -103.66717

Hourly Observations for January 13, 2017

Temp ( °F °C ) Dew Point ( °F °C ) Humidity (%) Winds ( mph kmh ) Pressure ( in mb ) Visibility ( mi km ) Precip ( " mm )
12:53 am 00:53 Mostly Clear 18 -7.8 11 -11.7 74 74 SE 8 13 30.38 1029 10 16 0.00 0.00
1:53 am 01:53 Mostly Cloudy 19 -7.2 11 -11.7 71 71 SE 10 17 30.39 1029 10 16 0.00 0.00
2:11 am 02:11 Mostly Cloudy 19 -7.2 11 -11.7 71 71 SE 10 17 30.48 1032 10 16 0.00 0.00
2:41 am 02:41 Partly Cloudy 18 -7.8 11 -11.7 74 74 SE 13 20 30.48 1032 10 16 0.00 0.00
2:53 am 02:53 Clear 17 -8.3 10 -12.2 74 74 ESE 9 15 30.38 1029 10 16 0.00 0.00
3:53 am 03:53 Clear 14 -10 9 -12.8 80 80 ESE 10 17 30.40 1030 10 16 0.00 0.00
4:53 am 04:53 Clear 13 -10.6 8 -13.3 81 81 E 9 15 30.40 1030 10 16 0.00 0.00
5:53 am 05:53 Clear 12 -11.1 8 -13.3 84 84 ESE 10 17 30.42 1030 10 16 0.00 0.00
6:53 am 06:53 Clear 12 -11.1 8 -13.3 84 84 ESE 8 13 30.44 1031 10 16 0.00 0.00
7:53 am 07:53 Sunny 12 -11.1 7 -13.9 80 80 E 7 11 30.46 1032 10 16 0.00 0.00
8:53 am 08:53 Sunny 14 -10 9 -12.8 80 80 ESE 6 9 30.49 1033 10 16 0.00 0.00
9:53 am 09:53 Sunny 17 -8.3 11 -11.7 77 77 ENE 3 6 30.50 1033 9 14 0.00 0.00
10:53 am 10:53 Sunny 19 -7.2 13 -10.6 77 77 ESE 5 7 30.49 1033 10 16 0.00 0.00
11:53 am 11:53 Sunny 23 -5 14 -10 68 68 ESE 3 6 30.45 1031 10 16 0.00 0.00
12:53 pm 12:53 Sunny 25 -3.9 15 -9.4 66 66 Calm 30.45 1031 10 16 0.00 0.00
1:53 pm 13:53 Sunny 30 -1.1 17 -8.3 58 58 ESE 3 6 30.42 1030 10 16 0.00 0.00
2:53 pm 14:53 Sunny 31 -0.6 19 -7.2 61 61 E 3 6 30.43 1031 10 16 0.00 0.00
3:53 pm 15:53 Sunny 31 -0.6 19 -7.2 61 61 Calm 30.45 1031 10 16 0.00 0.00
4:53 pm 16:53 Clear 27 -2.8 18 -7.8 69 69 ESE 3 6 30.47 1032 10 16 0.00 0.00
5:53 pm 17:53 Mostly Clear 23 -5 18 -7.8 81 81 ESE 5 7 30.49 1033 10 16 0.00 0.00
6:53 pm 18:53 Clear 22 -5.6 17 -8.3 82 82 ENE 6 9 30.50 1033 10 16 0.00 0.00
7:53 pm 19:53 Mostly Clear 20 -6.7 16 -8.9 85 85 E 5 7 30.52 1034 9 14 0.00 0.00
8:53 pm 20:53 Partly Cloudy 20 -6.7 15 -9.4 81 81 NNW 3 6 30.53 1034 9 14 0.00 0.00
9:53 pm 21:53 Cloudy 23 -5 18 -7.8 81 81 NNE 7 11 30.51 1033 10 16 0.00 0.00
10:53 pm 22:53 Cloudy 22 -5.6 18 -7.8 85 85 SW 3 6 30.51 1033 9 14 0.00 0.00
11:53 pm 23:53 Mostly Cloudy 23 -5 18 -7.8 81 81 Calm 30.49 1032 8 13 0.00 0.00

Powered by AerisWeather